Location: Beaurecueil
(43.5122°N, 5.5450°E)
Time: 04:17:47
(UTC+00:00)

Meteor 1-21 - Pass Details

Date: 21 June 2021
Orbit: 846 x 885 km, 81.2° (Epoch: 03 August)

Event Time Altitude Azimuth Distance (km) Brightness Sun altitude
Rises 21:13:24 0° 237° (WSW) 3,422 7.4 -15.1°
Reaches altitude 10° 21:16:46 10° 257° (WSW) 2,483 6.9 -15.4°
Maximum altitude 21:20:17 17° 296° (WNW) 2,041 7.0 -15.8°
Drops below altitude 10° 21:23:50 10° 336° (NNW) 2,483 8.0 -16.1°
Sets 21:27:12 0° 356° (N) 3,420 8.5 -16.5°
